STARLINK-11562, 62918

Orbit data source: Space-Track

STARLINK-11562, 62918 is a payload satellite owned by SpaceX/Seattle (US) in LEO that was launched on Sat, 08 Feb 2025 UTC via an FALCON 9 launch vehicle from the Air Force Eastern Test Range (AFETR). Payload-class satellites include a variety of spacecraft equipped with specific instruments for various scientific and technological missions. These include communications satellites like Starlink; space stations such as the ISS; scientific satellites like the Hubble; Earth observation satellites from companies like Planet Labs, Umbra, and HawkEye 360; GPS; miniature CubeSats for education and research; and military/defense satellites.

Loading next visibility...
Identifier
62918, 2025-027M
Orbit
LEO
Country
Flag of USUS
Related business
Manufacturer
SpaceX/Seattle
Mission
Operational Commercial Communications
Bus & Motor
STARLINK V2MD, Unknown motor
Mass
960 kg wet, ~910 kg dry
Launch date (UTC)
2025-02-08 (7 months ago)
Launch vehicle
FALCON 9
Launch site
Air Force Eastern Test Range (AFETR)
Object type
Payload
Rocket body
Debris
Shape & HBR
Box + 2 Pan, 14.5 m
Radar Cross Section
36.964 m², Large (>1 m²)

Expand to show TLE details & history
Last TLE update: 1 day ago

TLE from 1 day ago
0 STARLINK-11562
1 62918U 25027M   25260.00002315 -.00005910  00000-0 -42577-4 0  9994
2 62918  43.0002 314.4230 0001826 266.0103 225.3612 15.70848045  5906
Epoch: 2025-09-17T00:00Z
TLE epoch observation values (Epoch: 2025-09-17T00:00:02Z)
Latitude
30.91031°
Longitude
98.55595°
Altitude
358.041 km
Speed
7.699 km/s
True Right ascension
06h 18m 59s
True Declination
30° 44' 60"
Sunlit
Object was in daylight at epoch
Visualization orbit readout
Latitude
Unknown
Longitude
Unknown
Altitude
Unknown
Speed
Unknown
Apparent Right ascension
Unknown
Apparent Declination
Unknown
Sunlit
N/A
Visualization observer readout
Local Sidereal Time
16:50:15
Azimuth
Unknown
Elevation
Unknown
Doppler factor
Unknown
Orbital elements
Apogee altitude
359.684 km
Perigee altitude
357.224 km
Semi-major axis
6,736.591 km
Eccentricity
0.00018
Inclination
43.0002°
RAAN
314.423°
Arg. of periapsis
266.0103°
True anomaly
225.34631°
Mean anomaly
225.3612°
Eccentric anomaly
225.35376°
Mean motion
3.92539 °/min
Orbital period
91.71 mins
BSTAR
-0.000042577
Loading maneuver chart data...
Computing Atmospheric mass density...
Loading historical data...
Loading historical data...
Loading historical data...
Loading historical data...
Loading historical data...
Loading historical data...
Loading historical data...

Documentation

Showing up to 5 results
|